EHI
0 0 0 0 0 0 0 0 0 0 0 0 0 0 0 0 0 0 0 0 0 0 0 0 0 0 0 0 0 0 0 0 0 0 0 0 0 0
0 0 0 0 0 0 0 0 0 0 0 0 0 0 0 0 0 0 0 0 0 0 0 0 0 0 0 0 0 0 0 0 0 0 0 0 0 0
0 0 0 0 0 0 0 0 0 0 0 0 0 0 0 0 0 0 0 0 0 0 0 0 0 0 0 0 0 0 0 0 0 0 0 0 0 0
0 0 0 0 0 0 0 0 0 0 0 0 0 0 0 0 0 0 0 0 0 0 0 0 0 0 0 0 0 0 0 0 0 0 0 0 0 0
0 0 0 0 0 0 0 0 0 0 0 0 0 0 0 0 0 0 0 0 0 0 0 0 0 0 0 0 0 0 0 0 0 0 0 0 0 0
0 0 0 0 0 0 0 0 0 0 0 0 0 0 0 0 0 0 0 0 0 0 0 0 0 0 0 0 0 0 0 0 0 0 0 0 0 0
0 0 0 0 0 0 0 0 0 0 0 0 0 0 0 0 0 0 0 0 0 0 0 0 0 0 0 0 0 0 0 0 0 0 0 0 0 0
0 0 0 0 0 0 0 0 0 0 0 0 0 0 0 0 0 0 0 0 0 0 0 0 0 0 0 0 0 0 0 0 0 0 0 0 0 0
0 0 0 0 0 0 0 0 0 0 0 0 0 0 0 0 0 0 0 0 0 0 0 0 0 0 0 0 0 0 0 0 0 0 0 0 0 0
0 0 0 0 0 0 0 0 0 0 0 0 0 0 0 0 0 0 0 0 0 0 0 0 0 0 0 0 0 0 0 0 0 0 0 0 0 0
0 0 0 0 0 0 0 0 0 0 0 0 0 0 0 0 0 0 0 0 0 0 0 0 0 0 0 0 0 0 0 0 0 0 0 0 0 0
0 0 0 0 0 0 0 0 0 0 0 0 0 0 0 0 0 0 0 0 0 0 0 0 0 0 0 0 0 0 0 0 0 0 0 0 0 0
0 0 0 0 0 0 0 0 0 0 0 0 0 0 0 0 0 0 0 0 0 0 0 0 0 0 0 0 0 0 0 0 0 0 0 0 0 0
0 0 0 0 0 0 0 0 0 0 0 0 0 0 0 0 0 0 0 0 0 0 0 0 0 0 0 0 0 0 0 0 0 0 0 0 0 0
0 0 0 0 0 0 0 0 0 0 0 0 0 0 0 0 0 0 0 0 0 0 0 0 0 0 0 0 0 0 0 0 0 0 0 0 0 0
0 0 0 0 0 0 0 0 0 0 0 0 0 0 0 0 0 0 0 0 0 0 0 0 0 0 0 0 0 0 0 0 0 0 0 0 0 0
0 0 0 0 0 0 0 0 0 0 0 0 0 0 0 0 0 0 0 0 0 0 0 0 0 0 0 0 0 0 0 0 0 0 0 0 0 0
0 0 0 0 0 0 0 0 0 0 0 0 0 0 0 0 0 0 0 0 0 0 0 0 0 0 0 0 0 0 0 0 0 0 0 0 0 0
0 0 0 0 0 0 0 0 0 0 0 0 0 0 0 0 0 0 0 0 0 0 0 0 0 0 0 0 0 0 0 0 0 0 0 0 0 0
0 0 0 0 0 0 0 0 0 0 0 0 0 0 0 0 0 0 0 0 0 0 0 0 0 0 0 0 0 0 0 0 0 0 0 0 0 0
0 0 0 0 0 0 0 0 0 0 0 0 0 0 0 0 0 0 0 0 0 0 0 0 0 0 0 0 0 0 0 0 0 0 0 0 0 0
0 0 0 0 0 0 0 0 0 0 0 0 0 0 0 0 0 0 0 0 0 0 0 0 0 0 0 0 0 0 0 0 0 0 0 0 0 0
0 0 0 0 0 0 0 0 0 0 0 0 0 0 0 0 0 0 0 0 0 0 0 0 0 0 0 0 0 0 0 0 0 0 0 0 0 0
Wind_Speed
5 5 3 2 2 1 1 1 1 1 2 3 3 3 4 5 8 7 7 12 15 15 15 15 15 17 18 18 19 20 21 21 22 22 22 23 23 23
3 4 3 2 2 1 1 0 1 2 3 3 3 5 6 7 10 8 8 14 14 15 15 15 16 17 18 19 19 20 20 21 21 22 23 23 23 23
5 4 3 2 1 1 0 1 1 2 3 4 3 4 6 8 9 8 8 8 8 14 16 17 17 17 18 19 19 19 19 20 20 21 22 22 23 23
5 4 4 3 3 2 1 1 1 2 3 5 5 5 6 9 9 10 8 7 8 13 16 17 18 18 17 17 17 17 17 17 19 20 21 21 22 22
5 5 5 4 3 3 2 2 2 2 3 4 6 5 5 6 7 8 9 8 8 10 14 15 16 17 17 17 17 16 15 15 16 17 18 19 20 20
6 5 5 5 4 4 3 3 3 4 4 5 6 6 6 6 5 7 8 8 9 9 10 11 13 16 17 17 17 17 15 14 14 14 15 16 16 17
7 7 7 7 8 5 4 4 4 4 5 6 7 6 7 7 7 5 8 9 10 7 6 8 9 9 10 12 14 15 15 14 14 13 13 13 13 14
7 7 7 6 9 9 10 10 9 7 7 6 6 8 10 9 7 7 7 8 7 4 5 9 8 8 8 8 11 15 15 14 14 13 12 12 13 13
6 7 6 7 8 7 9 12 11 12 11 7 8 9 9 8 8 9 8 8 8 7 6 8 8 9 8 8 13 14 14 13 13 13 12 12 12 12
7 7 7 8 7 8 9 9 9 9 9 7 7 9 9 9 8 8 8 8 8 7 5 6 7 8 9 8 10 12 12 13 13 13 12 12 12 12
8 7 8 8 10 11 9 9 10 9 8 8 9 10 12 12 8 5 5 5 7 7 3 3 5 8 8 6 7 10 11 12 13 13 12 12 11 10
8 8 9 9 12 12 8 7 8 9 9 9 8 8 7 7 6 4 4 5 5 5 3 4 4 5 5 5 7 8 8 10 12 12 12 11 10 6
7 7 8 13 14 13 9 5 7 9 7 7 6 6 6 5 5 4 3 3 4 5 4 4 4 4 4 5 6 7 7 7 7 7 8 9 8 5
6 7 8 14 14 12 8 7 8 6 4 4 5 5 5 5 6 6 6 5 5 7 7 5 4 4 5 5 5 7 8 6 6 6 6 7 6 5
6 11 13 13 11 7 8 9 6 4 4 4 5 4 4 5 5 5 5 5 6 5 5 4 4 4 4 4 6 5 5 5 6 6 5 5 4 3
7 10 11 9 7 6 6 6 4 4 3 4 4 4 4 5 4 3 4 5 5 5 6 6 5 4 3 5 5 6 6 5 6 7 5 4 4 3
7 5 5 5 7 7 7 6 5 5 5 5 4 5 5 5 4 4 3 3 4 5 6 6 6 4 4 4 5 6 6 5 6 6 5 4 3 4
5 4 5 6 6 6 7 7 6 6 6 5 5 5 5 5 5 4 3 4 4 5 5 5 6 6 4 2 2 5 6 5 6 6 5 4 4 4
4 5 5 6 6 6 6 6 5 6 6 5 5 5 5 5 4 5 5 5 5 5 5 5 5 5 6 6 5 4 5 6 6 5 5 4 4 5
4 5 5 6 6 6 6 6 6 7 6 6 6 5 5 5 5 5 5 5 5 5 6 5 5 5 5 5 5 5 7 6 5 6 6 4 3 4
5 5 5 6 6 6 6 6 6 6 7 6 6 6 6 5 5 5 5 6 5 4 6 6 6 7 4 3 4 5 5 6 5 5 6 5 5 6
5 6 6 6 6 6 6 6 6 6 7 6 6 6 6 5 5 6 5 5 4 4 4 4 6 5 5 6 6 6 7 7 6 7 7 7 4 5
6 6 6 6 6 6 6 7 8 6 6 6 6 6 6 6 5 5 4 4 4 5 5 5 6 5 6 6 6 7 9 9 7 7 8 11 10 9
Wind_Direction
63 62 60 42 39 41 74 160 187 256 283 297 298 299 315 310 307 310 308 305 303 301 299 295 292 291 289 287 285 283 282 281 279 278 277 276 275 275
47 53 46 30 23 23 35 152 201 211 254 271 269 288 304 308 310 312 302 301 301 300 297 295 293 292 290 288 286 284 283 281 280 278 277 276 275 274
29 35 26 5 359 353 306 215 208 207 249 276 271 288 295 301 310 307 301 296 292 296 297 296 295 293 292 290 288 287 286 284 282 280 279 277 275 274
14 11 1 351 343 331 310 278 245 225 240 284 295 299 294 300 302 304 304 303 300 297 296 297 297 297 296 294 292 290 287 284 282 281 280 277 276 275
3 357 344 339 332 323 314 300 284 273 241 270 293 295 294 298 306 305 305 302 301 298 298 297 298 300 299 296 294 290 283 277 276 276 277 277 276 274
359 350 337 321 308 305 304 300 295 297 293 290 295 298 294 296 296 304 312 312 307 303 297 298 298 300 297 295 294 292 288 282 277 275 275 274 272 271
353 346 333 333 342 333 320 308 302 299 301 299 298 298 299 305 305 303 305 309 305 295 301 305 303 298 297 295 295 293 291 288 284 279 275 273 270 266
343 337 329 332 340 338 333 325 314 303 298 292 292 293 296 298 298 301 305 309 310 307 305 306 304 299 299 295 292 292 292 290 286 282 278 276 271 265
332 328 326 325 333 326 322 319 312 304 293 282 281 285 291 295 298 301 301 301 297 301 304 300 306 304 305 301 299 299 298 297 295 289 282 278 274 266
325 318 314 315 319 324 320 313 309 305 298 287 271 279 284 289 286 286 293 296 290 290 282 288 302 309 311 308 301 300 302 304 304 299 290 283 277 269
324 320 317 312 313 321 320 314 313 311 308 299 290 288 288 290 291 287 295 303 310 312 301 278 297 311 308 301 308 308 309 310 309 306 301 292 284 277
325 323 321 316 314 319 316 308 308 311 318 321 320 318 313 310 310 285 283 296 307 306 305 301 297 311 306 302 313 319 321 316 314 309 309 307 298 283
321 323 320 321 320 321 318 296 287 296 306 311 313 319 324 326 328 321 287 268 290 293 300 310 297 302 294 302 310 319 324 323 323 318 317 320 317 298
312 314 312 315 319 324 326 322 319 317 314 321 328 331 331 328 325 319 309 288 262 267 285 295 286 302 307 305 308 318 323 325 328 328 331 330 330 322
311 313 317 320 326 331 333 337 343 344 338 336 334 324 314 310 311 316 319 322 314 298 292 284 283 292 297 301 310 313 314 318 332 335 336 341 344 341
332 326 325 327 337 335 335 345 348 339 329 322 317 311 314 322 326 328 323 332 333 327 320 316 307 295 296 307 309 319 324 323 330 335 333 337 350 357
322 328 346 350 355 354 349 345 345 350 349 339 331 328 328 333 331 330 322 323 327 327 333 337 335 319 272 290 318 328 330 329 332 336 335 342 355 359
348 351 349 350 349 346 343 339 340 346 341 335 334 335 334 333 331 332 334 332 331 330 332 334 341 346 343 287 282 326 333 334 335 341 345 340 350 359
12 356 350 346 342 341 340 338 332 330 329 331 334 336 335 333 334 336 341 341 340 339 339 340 345 348 352 352 338 344 342 339 341 348 350 345 341 344
3 352 346 342 340 340 339 337 334 336 341 340 340 341 340 335 335 337 340 341 339 343 352 357 359 351 345 335 327 326 345 349 347 350 348 338 327 322
351 348 344 341 340 339 337 335 334 335 339 339 341 341 341 339 339 341 341 343 347 351 358 358 344 336 331 340 353 359 357 1 7 0 350 348 350 2
348 345 343 344 343 341 338 337 338 341 344 344 340 339 339 341 342 344 350 353 356 355 353 352 353 4 17 19 15 6 7 8 14 24 31 25 6 5
348 344 344 346 346 343 340 339 339 337 340 339 337 337 339 341 342 346 351 358 359 4 6 7 10 17 19 19 18 18 20 20 18 25 30 24 33 41